Orbital Elements at Epoch 2459200.5 (2020-Dec-17.0) TDB
Reference: JPL 20 (heliocentric ecliptic J2000)
Element | Value | Uncertainty (1-sigma) | Units |
e | .06236258234782036 | 4.421e-08 | |
a | 3.042944450159086 | 2.1755e-08 | au |
q | 2.853178576306198 | 1.4226e-07 | au |
i | 3.419304784359773 | 5.0014e-06 | deg |
node | 171.8831519992634 | 6.7562e-05 | deg |
peri | 326.3331718387032 | 7.7795e-05 | deg |
M | 308.4599318798876 | 3.9217e-05 | deg |
tp | 2459478.076024045747 (2021-Sep-20.57602405) | 0.0002122 | TDB |
period | 1938.828804486468 5.31 | 2.0792e-05 5.693e-08 | d yr |
n | .185679106462085 | 1.9912e-09 | deg/d |
Q | 3.232710324011975 | 2.3111e-08 | au |
|
| | Orbit Determination Parameters
Additional Information
|